Horseshoe Bay, TX

4:57 PM MDT on May 23, 2017 (GMT -0600)
Horseshoe Bay

Weather History for KDZB - April, 2014

Change the Weather History Date:

Sunday, April 20, 2014

  Actual Average (KBMQ) Record (KBMQ)
Temperature  
Mean Temperature 68 °F -  
Max Temperature 72 °F 76 °F 86 °F (1997)
Min Temperature 63 °F 55 °F 42 °F (2013)
Cooling Degree Days 2    
Growing Degree Days 18 (Base 50)    
Moisture  
Dew Point 59 °F    
Average Humidity 73    
Maximum Humidity 83    
Minimum Humidity 61    
Precipitation  
Precipitation 0.00 in - - ()
Sea Level Pressure  
Sea Level Pressure 30.08 in    
Wind  
Wind Speed 4 mph (SSE)    
Max Wind Speed 14 mph    
Max Gust Speed 21 mph    
Visibility 10 miles    
Events Rain    
Averages and records for this station are not official NWS values.
T = Trace of Precipitation, MM = Missing Value Source: NWS Daily Summary

Daily Weather History Graph

Daily Weather History Graph

Search for Another Location

Airport or City:

Trip Planner

Search our weather history database for the weather conditions in past years. The results will help you decide how hot, cold, wet, or windy it might be!

Date:

Astronomy

Apr. 20, 2014 Rise Set
Actual Time 6:00 AM MDT 7:04 PM MDT
Civil Twilight 5:35 AM MDT 7:29 PM MDT
Nautical Twilight 5:06 AM MDT 7:59 PM MDT
Astronomical Twilight 4:35 AM MDT 8:29 PM MDT
Moon No Moon Rise 10:30 AM MDT (4/20)
Length of Visible Light 13h 53m
Length of Day
13h 03m
Waning Gibbous, 68% of the Moon is Illuminated
Apr 20
Waning Gibbous
Apr 22
Last Quarter
Apr 29
New
May 6
First Quarter
May 14
Full

Hourly Weather History & Observations

Time (MDT) Temp. Dew Point Humidity Pressure Visibility Wind Dir Wind Speed Gust Speed Precip Events Conditions
12:15 AM 65.8 °F 54.9 °F 68% 30.11 in 10.0 mi Calm Calm - N/A   Overcast
12:35 AM 65.7 °F 55.0 °F 69% 30.10 in 10.0 mi Calm Calm - N/A   Overcast
12:55 AM 65.3 °F 55.4 °F 70% 30.10 in 10.0 mi SSE 3.5 mph - N/A   Overcast
1:15 AM 65.7 °F 54.1 °F 66% 30.10 in 10.0 mi SSE 5.8 mph - N/A   Overcast
1:35 AM 65.3 °F 55.0 °F 69% 30.11 in 10.0 mi Calm Calm - N/A   Overcast
1:55 AM 64.0 °F 55.0 °F 73% 30.10 in 10.0 mi East 3.5 mph - N/A   Overcast
2:15 AM 64.4 °F 54.5 °F 70% 30.10 in 10.0 mi Calm Calm - N/A   Overcast
2:35 AM 64.4 °F 54.5 °F 70% 30.10 in 10.0 mi Calm Calm - N/A   Overcast
2:55 AM 63.9 °F 55.0 °F 73% 30.11 in 10.0 mi Calm Calm - N/A   Overcast
3:15 AM 63.7 °F 54.9 °F 73% 30.11 in 10.0 mi Calm Calm - N/A   Overcast
3:35 AM 63.9 °F 54.9 °F 72% 30.09 in 10.0 mi ESE 3.5 mph - N/A   Overcast
3:55 AM 63.9 °F 55.4 °F 74% 30.09 in 10.0 mi East 3.5 mph - N/A   Overcast
4:15 AM 63.7 °F 55.4 °F 74% 30.10 in 10.0 mi Calm Calm - N/A   Overcast
4:35 AM 63.5 °F 55.6 °F 75% 30.09 in 10.0 mi Calm Calm - N/A   Overcast
4:55 AM 63.7 °F 56.1 °F 76% 30.10 in 10.0 mi Calm Calm - N/A   Overcast
5:15 AM 63.7 °F 56.3 °F 77% 30.10 in 10.0 mi Calm Calm - N/A   Overcast
5:35 AM 63.5 °F 56.3 °F 77% 30.10 in 10.0 mi ESE 3.5 mph - N/A   Overcast
5:55 AM 63.7 °F 56.7 °F 78% 30.10 in 10.0 mi SSE 4.6 mph - N/A   Overcast
6:15 AM 63.7 °F 56.8 °F 78% 30.12 in 10.0 mi Calm Calm - N/A   Overcast
6:35 AM 63.5 °F 57.2 °F 80% 30.12 in 10.0 mi Calm Calm - N/A   Overcast
6:55 AM 63.5 °F 57.4 °F 80% 30.11 in 10.0 mi SE 5.8 mph - N/A   Overcast
7:15 AM 63.9 °F 57.9 °F 81% 30.11 in 10.0 mi SE 8.1 mph - N/A   Overcast
7:35 AM 64.6 °F 58.8 °F 82% 30.12 in 10.0 mi SSE 13.8 mph 18.4 mph N/A   Overcast
7:55 AM 64.8 °F 59.4 °F 83% 30.12 in 10.0 mi SSE 8.1 mph 18.4 mph N/A   Overcast
8:15 AM 65.3 °F 59.5 °F 82% 30.12 in 10.0 mi SSE 9.2 mph - N/A   Overcast
8:35 AM 65.7 °F 59.9 °F 82% 30.12 in 10.0 mi South 8.1 mph - N/A   Overcast
8:55 AM 65.3 °F 59.9 °F 83% 30.11 in 10.0 mi SSE 6.9 mph - N/A   Overcast
9:15 AM 65.8 °F 59.9 °F 81% 30.12 in 10.0 mi SSE 6.9 mph - N/A   Overcast
9:35 AM 66.9 °F 60.3 °F 79% 30.13 in 10.0 mi SSE 4.6 mph - N/A   Overcast
9:55 AM 66.9 °F 59.9 °F 78% 30.13 in 10.0 mi South 8.1 mph - N/A   Overcast
10:15 AM 67.6 °F 59.9 °F 76% 30.13 in 10.0 mi SSE 5.8 mph - N/A   Overcast
10:35 AM 68.9 °F 60.1 °F 73% 30.13 in 10.0 mi South 8.1 mph - N/A   Overcast
10:55 AM 70.5 °F 60.1 °F 69% 30.13 in 10.0 mi South 10.4 mph 16.1 mph N/A   Overcast
11:15 AM 71.2 °F 59.7 °F 67% 30.12 in 10.0 mi SSE 11.5 mph 19.6 mph N/A   Overcast
11:35 AM 72.7 °F 59.7 °F 64% 30.11 in 10.0 mi South 13.8 mph 17.3 mph N/A   Overcast
11:55 AM 71.4 °F 59.7 °F 66% 30.12 in 10.0 mi SSE 9.2 mph 17.3 mph N/A   Overcast
12:15 PM 70.9 °F 59.5 °F 67% 30.11 in 10.0 mi South 10.4 mph 16.1 mph N/A   Overcast
12:35 PM 70.7 °F 59.9 °F 69% 30.10 in 10.0 mi SSE 5.8 mph - N/A   Overcast
12:55 PM 72.1 °F 59.7 °F 65% 30.09 in 10.0 mi South 10.4 mph - N/A   Overcast
1:15 PM 72.5 °F 58.5 °F 61% 30.09 in 10.0 mi South 11.5 mph 19.6 mph N/A   Overcast
1:35 PM 72.0 °F 59.0 °F 64% 30.08 in 10.0 mi South 8.1 mph 18.4 mph N/A   Overcast
1:55 PM 71.6 °F 58.3 °F 63% 30.08 in 10.0 mi South 9.2 mph 20.7 mph N/A   Overcast
2:15 PM 71.2 °F 58.6 °F 64% 30.08 in 10.0 mi South 9.2 mph 19.6 mph N/A   Overcast
2:35 PM 70.9 °F 59.0 °F 66% 30.07 in 10.0 mi South 9.2 mph - N/A   Overcast
2:55 PM 71.1 °F 59.4 °F 66% 30.07 in 10.0 mi South 11.5 mph 17.3 mph N/A   Overcast
3:15 PM 68.2 °F 62.4 °F 82% 30.06 in 4.0 mi South 5.8 mph 16.1 mph N/A   Drizzle
3:35 PM 68.5 °F 62.1 °F 80% 30.05 in 10.0 mi SSE 4.6 mph - N/A   Overcast
3:55 PM 69.1 °F 61.7 °F 77% 30.05 in 10.0 mi SSE 8.1 mph - N/A   Overcast
4:15 PM 69.8 °F 61.5 °F 75% 30.04 in 10.0 mi SE 6.9 mph - N/A   Overcast
4:35 PM 69.6 °F 61.7 °F 76% 30.03 in 10.0 mi SE 3.5 mph - N/A   Overcast
4:55 PM 69.8 °F 62.1 °F 76% 30.03 in 10.0 mi SE 4.6 mph - N/A   Overcast
5:15 PM 69.8 °F 61.0 °F 73% 30.03 in 10.0 mi SSE 6.9 mph - N/A   Overcast
5:35 PM 70.0 °F 60.8 °F 73% 30.03 in 10.0 mi South 6.9 mph - N/A   Overcast
5:55 PM 70.7 °F 60.3 °F 69% 30.03 in 10.0 mi SSE 5.8 mph - N/A   Overcast
6:15 PM 70.3 °F 60.3 °F 70% 30.03 in 10.0 mi Calm Calm - N/A   Overcast
6:35 PM 70.3 °F 60.1 °F 70% 30.03 in 10.0 mi Calm Calm - N/A Rain Rain
6:55 PM 69.6 °F 60.8 °F 73% 30.03 in 7.0 mi Calm Calm - N/A   Drizzle
7:15 PM 68.2 °F 61.7 °F 80% 30.03 in 10.0 mi Calm Calm - N/A   Light Drizzle
7:35 PM 68.9 °F 60.8 °F 75% 30.03 in 10.0 mi SSE 4.6 mph - N/A   Overcast
7:55 PM 69.1 °F 60.3 °F 73% 30.03 in 10.0 mi South 4.6 mph - N/A   Overcast
8:15 PM 69.3 °F 60.1 °F 72% 30.04 in 10.0 mi Calm Calm - N/A   Overcast
8:35 PM 69.1 °F 60.3 °F 73% 30.06 in 10.0 mi Calm Calm - N/A   Overcast
8:55 PM 68.9 °F 60.3 °F 74% 30.07 in 10.0 mi Calm Calm - N/A   Overcast
9:15 PM 68.9 °F 60.3 °F 74% 30.08 in 10.0 mi Calm Calm - N/A   Overcast
9:35 PM 68.2 °F 60.8 °F 77% 30.07 in 10.0 mi Calm Calm - N/A Rain Rain
9:55 PM 67.6 °F 60.8 °F 79% 30.07 in 10.0 mi SSE 3.5 mph - N/A   Overcast
10:15 PM 67.5 °F 59.0 °F 74% 30.06 in 10.0 mi SSE 5.8 mph - N/A   Mostly Cloudy
10:35 PM 67.5 °F 57.6 °F 70% 30.05 in 10.0 mi SSE 5.8 mph - N/A   Clear
10:55 PM 67.5 °F 57.2 °F 70% 30.04 in 10.0 mi SSE 9.2 mph 16.1 mph N/A   Clear
11:15 PM 67.1 °F 57.2 °F 70% 30.04 in 10.0 mi South 9.2 mph 16.1 mph N/A   Clear
11:35 PM 66.7 °F 56.8 °F 70% 30.04 in 10.0 mi South 8.1 mph - N/A   Clear
11:55 PM 66.2 °F 57.2 °F 73% 30.04 in 10.0 mi South 6.9 mph - N/A   Clear